Flag for Germany Weather past 2 weeks in Steinfurt, North Rhine-Westphalia, Germany

Now
52 °F

Cool.


Feels Like: 47 °F
Forecast: 34 / 39 °F
Wind: 14 mph from Southwest

Location: Rheine-Bentlage

Current Time: Dec 25, 2014 at 9:10:48 PM

Latest Report: Dec 25, 2014 at 8:20 PM


Visibility: N/A

Pressure: 30.27 "Hg

Humidity: 100%

Dew point: 52 °F

Location of SteinfurtLocation

Historic Weather in Steinfurt — Graph

°F

Steinfurt temperature yesterday

Maximum temperature yesterday: 52 °F (at 12:20 AM)
Minimum temperature yesterday: 52 °F (at 12:20 AM)
Average temperature yesterday: 52 °F

Past Weeks' High & Low Weather Summary

 TemperatureHumidityPressure
High54 °F (Dec 18, 2:20 PM)100% (Dec 16, 8:46 AM)30.33 "Hg (Dec 16, 8:46 AM)
Low36 °F (Dec 14, 8:20 PM)75% (Dec 15, 2:20 AM)29.30 "Hg (Dec 12, 1:20 PM)
Average47 °F94%29.87 "Hg
* Reported Dec 10 7:20 PM — Dec 25 7:20 PM, Steinfurt, Weather by CustomWeather, © 2014

Note: Actual official high and low records may vary slightly from our data, if they occured in-between our weather recording intervals... More about our weather records

Advertising

Steinfurt weather history for previous 24 hours

 ConditionsComfort  
Time TempWeatherWind HumidityBarometerVisibility
7:20 PM
Dec 25
52 °FCool.14 mph100%30.27 "HgN/A
6:20 PM52 °FCool.14 mph100%30.24 "HgN/A
5:20 PM52 °FCool.14 mph100%30.21 "HgN/A
4:20 PM52 °FCool.14 mph100%30.18 "HgN/A
3:20 PM52 °FCool.14 mph100%30.15 "HgN/A
2:20 PM52 °FCool.14 mph100%30.15 "HgN/A
1:20 PM52 °FCool.14 mph100%30.12 "HgN/A
12:20 PM52 °FCool.14 mph100%30.12 "HgN/A
11:20 AM52 °FCool.14 mph100%30.12 "HgN/A
10:20 AM52 °FCool.14 mph100%30.09 "HgN/A
9:20 AM52 °FCool.14 mph100%30.09 "HgN/A
8:20 AM52 °FCool.14 mph100%30.07 "HgN/A
7:20 AM52 °FCool.14 mph100%30.04 "HgN/A
6:20 AM52 °FCool.14 mph100%30.04 "HgN/A
5:20 AM52 °FCool.14 mph100%30.04 "HgN/A
4:20 AM52 °FCool.14 mph100%30.04 "HgN/A
3:20 AM52 °FCool.14 mph100%30.04 "HgN/A
2:20 AM52 °FCool.14 mph100%30.04 "HgN/A
1:20 AM52 °FCool.14 mph100%30.04 "HgN/A
12:20 AM52 °FCool.14 mph100%30.04 "HgN/A
11:20 PM
Dec 24
52 °FCool.14 mph100%30.04 "HgN/A
10:20 PM52 °FCool.14 mph100%30.01 "HgN/A
9:20 PM52 °FCool.14 mph100%30.01 "HgN/A
Weather by CustomWeather, © 2014

See weather overviewHow to use our weather pages